Terminal Aerodrome Forecast
Issued by NWS Topeka, KS

Home | Current Version | Previous Version | Text Only | Print | Product List | Glossary Off
Versions: 1 2 3 4 5 6 7 8 9 10 11 12 13 14 15 16 17 18 19 20 21 22 23 24 25 26 27 28 29

000
FTUS43 KTOP 291003 AAB
TAFTOP
TAF AMD
KTOP 291003Z 2910/3006 30003KT P6SM SCT018 SCT035
      TEMPO 2910/2912 BKN018
     FM291200 33004KT 6SM BR BKN018
     FM291600 35008KT P6SM BKN025
     FM292000 02005KT P6SM FEW035=

USA.gov is the U.S. government's official web portal to all federal, state and local government web resources and services.